Location: Newark
(55.7083°N, 13.1992°E)
Time: 07:24:04
(UTC+00:00)

N. Korean satellite - Pass Details

Date: 25 January 2020
Orbit: 456 x 505 km, 97.2° (Epoch: 20 February)

Event Time Altitude Azimuth Distance (km) Brightness Sun altitude
Rises 16:22:09 0° 183° (S) 2,466 10.5 -7.9°
Reaches altitude 10° 16:24:15 10° 191° (SSW) 1,598 9.7 -8.1°
Maximum altitude 16:27:29 39° 262° (W) 711 8.1 -8.6°
Drops below altitude 10° 16:30:46 10° 333° (NNW) 1,621 9.3 -9.0°
Sets 16:32:55 0° 341° (NNW) 2,507 10.2 -9.3°
